STARLINK-1548, 46054

Orbit data source: Space-Track

STARLINK-1548, 46054 is a payload satellite owned by SpaceX/Seattle (US) in LEO that was launched on Fri, 07 Aug 2020 UTC via an FALCON 9 launch vehicle from the Air Force Eastern Test Range (AFETR). Payload-class satellites include a variety of spacecraft equipped with specific instruments for various scientific and technological missions. These include communications satellites like Starlink; space stations such as the ISS; scientific satellites like the Hubble; Earth observation satellites from companies like Planet Labs, Umbra, and HawkEye 360; GPS; miniature CubeSats for education and research; and military/defense satellites.

Loading next visibility...
Identifier
46054, 2020-055AD
Orbit
LEO
Country
Flag of USUS
Related business
Manufacturer
SpaceX/Seattle
Mission
Operational Commercial Communications
Bus & Motor
STARLINK, Unknown motor
Mass
260 kg wet, ~248 kg dry
Launch date (UTC)
2020-08-07 (5 years ago)
Launch vehicle
FALCON 9
Launch site
Air Force Eastern Test Range (AFETR)
Object type
Payload
Rocket body
Debris
Shape & HBR
Box + 1 Pan, 10.1 m
Radar Cross Section
13.562 m², Large (>1 m²)

Expand to show TLE details & history
Last TLE update: 17 hours ago

TLE from 17 hours ago
0 STARLINK-1548
1 46054U 20055AD  25304.38653397  .00008624  00000-0  59701-3 0  9994
2 46054  53.0552 337.0830 0001512  79.9075 280.2085 15.06406718289542
Epoch: 2025-10-31T09:16Z
TLE epoch observation values (Epoch: 2025-10-31T09:16:36.535Z)
Latitude
0.00004°
Longitude
157.99909°
Altitude
547.885 km
Speed
7.589 km/s
True Right ascension
22h 28m 19s
True Declination
0° 00' 00"
Sunlit
Object was in full shadow at epoch
Visualization orbit readout
Latitude
Unknown
Longitude
Unknown
Altitude
Unknown
Speed
Unknown
Apparent Right ascension
Unknown
Apparent Declination
Unknown
Sunlit
N/A
Visualization observer readout
Local Sidereal Time
21:36:58
Azimuth
Unknown
Elevation
Unknown
Doppler factor
Unknown
Orbital elements
Apogee altitude
548.509 km
Perigee altitude
546.414 km
Semi-major axis
6,925.599 km
Eccentricity
0.00015
Inclination
53.0552°
RAAN
337.083°
Arg. of periapsis
79.9075°
True anomaly
280.19145°
Mean anomaly
280.2085°
Eccentric anomaly
280.19997°
Mean motion
3.7658 °/min
Orbital period
95.6 mins
BSTAR
0.00059701
Loading maneuver chart data...
Computing Atmospheric mass density...
Loading historical data...
Loading historical data...
Loading historical data...
Loading historical data...
Loading historical data...
Loading historical data...
Loading historical data...

Documentation

Showing up to 5 results
|